Other Public Products
Issued by NWS Grand Forks, ND

Home | Current Version | Previous Version | Graphics & Text | Print | Product List | Glossary On
Versions: 1 2 3 4 5 6 7 8 9 10 11 12 13 14 15 16 17 18 19 20 21 22 23 24 25 26 27 28 29 30 31 32 33 34 35 36 37 38 39 40 41 42 43 44 45 46 47 48 49 50
000
FPUS83 KFGF 302310
OPUFGF
PRAIRIE TO PINES WEATHER ROUNDUP
NATIONAL WEATHER SERVICE EASTERN NORTH DAKOTA/GRAND FORKS ND
600 PM CDT MON MAY 30 2016

 **SATELLITE DATA USED TO AUGMENT SKY COVER AT AUTOMATED STATIONS**
 *****  WEATHER ACROSS EASTERN NORTH DAKOTA  *****

CITY           SKY/WX    TMP DP  RH WIND       PRES   REMARKS
GRAND FORKS    LGT RAIN  63  56  78 N10       29.84R
GRAND FORKS AF RAIN      62  57  82 NE8       29.84F
GRAND CITY NWS   N/A     63 N/A N/A N10         N/A
BUXTON           N/A     70  57  63 N17         N/A
DEVILS LAKE    LGT RAIN  63  55  75 SE8       29.84F
FARGO          PTSUNNY   85  45  24 S17G24    29.76F
WAHPETON ARPT  MOCLDY    75  55  50 NE12      29.79F
$$

 *****  WEATHER ACROSS CENTRAL AND WESTERN NORTH DAKOTA  *****

CITY           SKY/WX    TMP DP  RH WIND       PRES   REMARKS
JAMESTOWN      LGT RAIN  64  58  80 N18       29.80R
BISMARCK       CLOUDY    65  55  70 NE9G22    29.78F
MINOT          CLOUDY    61  53  75 W8        29.85F
MINOT AFB      CLOUDY    61  54  76 W7        29.85F
GARRISON         N/A     57  54  89 N9        29.85F
WILLISTON      LGT RAIN  56  51  84 N8        29.90F
DICKINSON      CLOUDY    57  53  86 N9        29.85S
HETTINGER      CLOUDY    56  54  93 NW7       29.88R
$$

 *****  OTHER OBSERVATIONS NORTHEAST NORTH DAKOTA  *****

CITY           SKY/WX    TMP DP  RH WIND       PRES   REMARKS
WALHALLA       FAIR      73  68  83 SW14      29.85F
LANGDON        FAIR      68  54  60 SE12      29.86F
CAVALIER       FAIR      66  55  68 SW10G20   29.86R
GRAFTON        FAIR      64  57  77 NW21      29.86F
CANDO          NOT AVBL
FORT TOTTEN      N/A     60  55  84 SE5       29.95S
ROLLA          FAIR      72  41  33 NE12      29.85S
RUGBY          LGT RAIN  61  55  82 S6        29.85R
 ***** THE ABOVE OBSERVATIONS ARE NON NWS ARE NOT QUALITY
        CONTROLLED AND MAY MIS-REPORT RAIN FOR SNOW...
$$

 *****  OTHER OBSERVATIONS SOUTHEAST NORTH DAKOTA *****

CITY           SKY/WX    TMP DP  RH WIND       PRES   REMARKS
COOPERSTOWN    NOT AVBL
VALLEY CITY    MOCLDY    72  55  56 S6        29.81R
OAKES            N/A    N/A N/A N/A MISG        N/A
GWINNER        FAIR      82  54  36 S14       29.77F
SHEYENNE NWR     N/A     82  53  36 S7        29.95S
BUFFALO          N/A     81  45  27 S21         N/A
WYNDMERE         N/A     84  50  30 S14         N/A
 ***** THE ABOVE OBSERVATIONS ARE NON NWS ARE NOT QUALITY
       CONTROLLED AND MAY MIS-REPORT RAIN FOR SNOW...
$$

  *****  WEATHER ACROSS NORTHERN MINNESOTA  *****

CITY           SKY/WX    TMP DP  RH WIND       PRES   REMARKS
FLAG ISLAND    CLOUDY    70  52  52 NE12      29.91F
WARROAD        NOT AVBL
ROSEAU         CLOUDY    73  61  64 E13       29.88F
HALLOCK        CLOUDY    77  46  33 SE3       29.83F
THF RVR FALLS  CLOUDY    73  50  43 E6        29.87S
HALSTAD        NOT AVBL
FOSSTON        PTSUNNY   77  55  47 E5        29.85F
BAUDETTE       PTSUNNY   77  48  35 E6        29.89F
WASKISH        CLOUDY    75  46  35 CALM      29.89F
CROOKSTON      TSTM      68  55  64 SW3       29.86R
$$
  *****  WEATHER ACROSS CENTRAL AND WEST MINNESOTA  *****

CITY           SKY/WX    TMP DP  RH WIND       PRES   REMARKS
BEMIDJI        MOSUNNY   75  47  37 SE13      29.88F
PARK RAPIDS    PTSUNNY   76  51  41 E15       29.87F
WADENA         MOSUNNY   81  50  34 S14       29.86F
DETROIT LAKES  MOSUNNY   79  43  27 S15       29.84F
MOORHEAD       MOSUNNY   82  46  28 SE16      29.78F
FERGUS FALLS   PTSUNNY   81  52  36 SE16G22   29.77F
ELBOW LAKE     FAIR      80  55  43 SE18      29.81F
MORRIS MN      MOSUNNY   81  52  36 S16       29.80F
STAPLES        MOSUNNY   77  46  33 S12G21    29.87F
WHEATON        MOSUNNY   86  54  32 S16G22    29.79F
$$
  *****  WEATHER ELSEWHERE ACROSS MINNESOTA  *****

CITY           SKY/WX    TMP DP  RH WIND       PRES   REMARKS
DULUTH         PTSUNNY   73  49  42 E5        29.93S
INTRNTL FALLS  SUNNY     75  46  35 NE9       29.93F
ELY            MOSUNNY   73  39  29 NE6       29.96S
CLOQUET        CLOUDY    75  43  31 CALM      29.93S
BRAINERD       CLOUDY    78  51  38 S7        29.89F
HIBBING        MOSUNNY   76  44  32 N7        29.92F
ALEXANDRIA     PTSUNNY   76  53  44 SE12      29.87F
SAINT CLOUD    MOSUNNY   81  52  36 SE13      29.89F
MINNEAPOLIS    PTSUNNY   83  48  29 S9        29.90F
$$

  *****  WEATHER ACROSS SOUTH DAKOTA  *****

CITY           SKY/WX    TMP DP  RH WIND       PRES   REMARKS
SIOUX FALLS    MOSUNNY   81  55  40 S13       29.80F
BROOKINGS      SUNNY     80  60  50 S13G20    29.80F
WATERTOWN      MOSUNNY   80  56  43 S17G24    29.79F
HURON          MOSUNNY   80  59  48 S16       29.74F
SISSETON         N/A     84  48  28 S20G26    29.77F
ABERDEEN       CLOUDY    82  57  42 S18G26    29.75F
MITCHELL       MOSUNNY   80  61  52 S15G22    29.76F
PIERRE         CLOUDY    81  58  45 S15G24    29.68F
MOBRIDGE       CLOUDY    65  55  70 E16       29.69S
RAPID CITY     MOSUNNY   70  47  43 N25G35    29.85S
$$

  *****  SOME WEATHER IN NEARBY STATES *****

CITY           SKY/WX    TMP DP  RH WIND       PRES   REMARKS
GLASGOW MT     CLOUDY    62  43  49 W20G28    29.94S
GREAT FALLS MT MOSUNNY   60  35  39 NW15      30.12F
CHEYENNE WY    CLOUDY    58  50  75 SW8       30.02F
SCOTTSBLUFF NE CLOUDY    71  44  37 SW9       29.89F
OMAHA NE       TSTM      76  61  59 S10       29.88R
DES MOINES IA  PTSUNNY   86  58  38 S15       29.89F
DAVENPORT IA   SUNNY     85  58  39 SW8       29.95F
CHICAGO IL     MOSUNNY   83  58  42 E9        29.95S
EAU CLAIRE WI  MOSUNNY   81  51  35 SW8       29.94F
LA CROSSE WI   SUNNY     82  47  29 SW7       29.94F
$$

  *****  SOME NATIONAL WEATHER *****

CITY           SKY/WX    TMP DP  RH WIND       PRES   REMARKS
LA GUARDIA NY  CLOUDY    76  72  87 S9        29.92S
RALEIGH NC     CLOUDY    74  71  91 NE5       29.94S
ATLANTA GA     MOSUNNY   89  56  32 N12       29.92F
NEW ORLEANS LA PTSUNNY   79  70  74 CALM      29.94R
OKLAHOMA CITY  MOSUNNY   81  65  58 SE5       29.91F
ALBUQUERQUE NM PTSUNNY   82  21  10 NW6       29.96F
SALT LAKE CITY PTSUNNY   78  35  21 NW12G21   30.05S
LOS ANGELES CA MOSUNNY   66  56  70 W14       29.94F
BOISE ID       SUNNY     75  30  19 NW16G24   30.08F
SEATTLE WA     PTSUNNY   72  42  34 N10       30.24F
$$

*** WEATHER ACROSS MANITOBA...SASKATCHEWAN AND ONTARIO ***
                ***ONTARIO***

CITY           SKY/WX    TMP DP  RH WIND       PRES   REMARKS
GERALDTON      DRIZZLE   45  43  93 N13G20    30.00R
THUNDER BAY    MOSUNNY   68  48  49 N10G21    29.96R
SIOUX LOOKOUT  PTSUNNY   61  46  59 VRB5      30.04R
TORONTO        MOSUNNY   77  46  33 W12       29.92S
BIG TROUT LK   SUNNY     55  27  33 NE5       30.11R
PICKLE LAKE    PTSUNNY   55  41  58 N3        30.06S
DRYDEN         MOSUNNY   61  46  59 NE9       30.02R
KENORA         PTSUNNY   66  50  55 NE8       29.98R
$$
                *** MANITOBA***

CITY           SKY/WX    TMP DP  RH WIND       PRES   REMARKS
BRANDON        PTSUNNY   73  54  49 NE24      29.85F
DAUPHIN        SUNNY     64  55  72 NE12      29.93F
ISLAND LAKE    CLOUDY    57  36  44 VRB7      30.10S
PILOT MOUND      N/A     72  46  40 E12         N/A
THE PAS        PTSUNNY   59  50  72 SE12G18   30.04S
THOMPSON       PTSUNNY   59  37  44 N10G17    30.13F
WINNIPEG       PTSUNNY   75  54  46 NE17      29.87F
LYNN LAKE      CLOUDY    43  41  93 E9        30.16S
CHURCHILL      MOSUNNY   34  28  80 NE14G21   30.35S WCI  24
GILLAM         MOSUNNY   52  34  50 NE9       30.20S
$$
                ***SASKATCHEWAN***

CITY           SKY/WX    TMP DP  RH WIND       PRES   REMARKS
ESTEVAN        LGT RAIN  57  55  94 W14       29.91F
KINDERSLEY     CLOUDY    59  50  72 N18       29.95R
LLOYDMINSTER   CLOUDY    59  48  67 N12G17    30.04R
PRINCE ALBERT  PTSUNNY   64  46  52 NE9       29.98R
REGINA         LGT RAIN  63  50  63 NW7       29.88R
YORKTON        SUNNY     66  50  55 N15G22    29.89F   C1F1C2F2C3F3C4F4C5F5C6F6C7F7C8F8C9F9CaFaCbFbCcFcCdFdCe!



USA.gov is the U.S. government's official web portal to all federal, state and local government web resources and services.